Location: Hopewell Observatory
(38.8698°N, 77.6988°W)
Time: 23:15:26
(UTC-04:00)

Daily predictions for brighter satellites

Satellite Brightness Start Highest point End
(mag) Time Altitude Azimuth Time Altitude Azimuth Time Altitude Azimuth
DELTA 2 R/B (1) 3.7 20:07:24 10° W 20:13:00 83° N 20:18:34 10° E
Meteor 2-21 4.5 20:07:55 10° S 20:14:04 71° E 20:20:13 10° NNE
Cosmos 1975 4.4 20:18:23 10° SE 20:21:06 17° E 20:23:50 10° NE
Okean 2 3.8 20:17:22 10° N 20:21:22 43° E 20:25:19 10° SSE
NOSS 2-1 (D) 3.6 20:19:32 10° SW 20:23:21 74° NW 20:27:39 10° NNE
Cosmos 968 Rocket 3.8 20:18:22 10° NNW 20:23:31 70° WSW 20:28:33 10° S
Cosmos 1697 Rocket 4.2 20:20:28 10° SE 20:23:32 15° E 20:26:37 10° ENE
Meteor 2-4 Rocket 3.8 20:17:45 10° N 20:23:38 77° E 20:29:33 10° SSE
Helios 1A 3.5 20:19:44 10° S 20:23:51 64° WSW 20:28:02 10° NNW
NOSS 2-1 (C) 3.6 20:20:33 10° SW 20:24:22 74° NW 20:28:41 10° NNE
Cosmos 2278 4.0 20:19:57 10° S 20:25:19 46° ESE 20:30:45 10° NE
Cosmos 2123 Rocket 4.3 20:20:05 10° N 20:26:00 46° ENE 20:31:53 10° SSE
Lacrosse 5 rocket 2.8 20:27:53 10° NNW 20:30:48 21° NE 20:33:38 10° E
Cosmos 1315 Rocket 4.0 20:27:35 10° SSW 20:31:28 49° WNW 20:35:25 10° N
ERS-1 Rocket 4.2 20:28:00 10° ESE 20:31:58 24° ENE 20:35:56 10° NNE
Meteor 2-14 Rocket 4.4 20:26:06 10° S 20:32:12 71° E 20:38:20 10° NNE
ALOS 2.3 20:27:39 10° SSE 20:32:16 66° ENE 20:36:55 10° N
Cosmos 1892 Rocket 3.6 20:29:33 10° N 20:34:02 74° E 20:38:31 10° SSE
Cosmos 1025 Rocket 3.5 20:31:01 10° NNW 20:35:21 64° W 20:39:37 10° S
Cosmos 1455 Rocket 3.0 20:33:58 10° S 20:38:12 61° E 20:42:30 10° NNE
H-2A R/B 2.8 20:34:45 10° SSE 20:38:33 61° ENE 20:42:26 10° N
Cosmos 2369 3.8 20:33:08 10° S 20:38:36 53° ESE 20:44:08 10° NNE
Resurs 1-3 4.2 20:34:20 10° S 20:38:38 59° W 20:42:59 10° NNW
NOSS 2-1 (E) 4.2 20:36:36 10° SW 20:40:25 55° NW 20:44:47 10° NNE
Cosmos 1461 3.4 20:38:01 10° NNW 20:41:52 39° NE 20:44:43 15° ESE
Meteor 1-23 Rocket 4.4 20:37:43 10° NNW 20:43:22 78° W 20:49:04 10° S
Cosmos 1602 Rocket 4.4 20:39:34 10° NNE 20:43:34 31° ENE 20:46:53 13° SE
Cosmos 1980 Rocket 3.7 20:45:16 14° ESE 20:45:40 14° E 20:48:23 10° ENE
Centaur D-1A AC-32 4.0 20:50:20 10° SW 20:52:23 13° SSW 20:54:05 10° SSE
Cosmos 1939 Rocket 4.0 20:51:41 18° ESE 20:53:44 27° ENE 20:57:14 10° NNE
CZ-2D R/B 3.5 20:51:30 10° S 20:55:20 72° WSW 20:59:14 10° NNW
Resurs 01 Rocket 3.7 20:51:59 10° SSW 20:55:48 29° W 20:59:40 10° NW
Cosmos 1934 Rocket 4.1 20:49:58 10° S 20:56:06 79° W 21:02:20 10° N
Lacrosse 5 3.6 20:53:01 10° NNW 20:56:55 22° NNE 21:00:15 12° ENE
Hubble Space Telescope 2.9 20:58:56 10° SW 21:01:16 15° SSW 21:03:00 12° SSE
SPOT 5 4.2 21:02:06 19° E 21:03:55 23° ENE 21:07:44 10° NNE
Cosmos 220 Rocket 4.3 21:03:54 10° N 21:07:58 45° ENE 21:09:49 27° ESE
Cosmos 1346 Rocket 3.4 21:07:23 10° NNW 21:11:15 56° W 21:15:09 10° S
Delta 2 Rocket 4.4 21:06:07 10° W 21:11:32 49° SSW 21:14:11 26° SE
USA 186 2.8 21:10:18 10° S 21:13:19 43° W 21:16:12 10° NNW
FENGYUN 3A 4.4 21:08:39 10° S 21:13:51 52° W 21:19:04 10° NNW
Cosmos 2227 Rocket 2.2 21:08:17 10° NNW 21:13:58 89° WSW 21:18:21 17° SSE
Tiangong 1 2.2 21:12:04 10° WNW 21:14:59 37° N 21:16:25 23° NE
OTV 4 0.6 21:13:27 10° W 21:16:22 53° SSW 21:16:45 48° SSE
Cosmos 1656 3.6 21:14:20 10° S 21:19:54 67° ESE 21:25:26 10° NNE
Cosmos 1500 3.2 21:18:30 31° SSE 21:20:00 53° E 21:23:42 10° NNE
RESURS DK-1 3.8 21:18:37 10° N 21:21:54 22° ENE 21:22:21 22° ENE
NOSS 3-4 (A) 4.1 21:14:54 10° NW 21:21:56 68° WSW 21:28:01 16° SSE
NOSS 3-4 (C) 4.1 21:15:01 10° NW 21:22:03 68° WSW 21:28:06 16° SSE
BREEZE-M TANK 3.6 21:11:09 10° WNW 21:22:53 62° NNE 21:24:54 28° E
Cosmos 2298 Rocket 4.2 21:21:02 10° N 21:26:16 56° ENE 21:28:25 33° SE
Cosmos 2082 3.8 21:21:46 10° NNW 21:27:23 74° WSW 21:31:16 21° SSE
CZ-4 DEB 2.8 21:26:41 42° S 21:27:36 75° W 21:30:45 10° NNW
Cosmos 2297 Rocket 2.1 21:23:57 10° NNW 21:29:39 88° ENE 21:32:47 28° SSE
Cosmos 1340 4.1 21:32:35 10° NNE 21:34:56 24° NE 21:34:56 24° NE
Envisat 2.9 21:34:13 32° SSE 21:36:35 76° ENE 21:41:40 10° N
Cosmos 2173 Rocket 4.0 21:32:57 19° SSE 21:37:33 60° E 21:43:47 10° NNE
H-2A R/B 4.0 21:39:13 13° ENE 21:39:13 13° ENE 21:41:12 10° NE
Milstar 3 Cent rocket 4.3 21:19:11 10° WSW 21:40:01 54° S 21:45:56 30° SE
Cosmos 1937 Rocket 3.8 21:37:27 10° N 21:42:36 50° ENE 21:43:40 44° ESE
Cosmos 1515 3.9 21:40:05 10° NNW 21:43:55 68° W 21:44:57 44° SSW
Terra 4.1 21:44:43 11° NE 21:44:43 11° NE 21:45:27 10° NE
ASTEX 1 3.7 21:41:33 10° NNE 21:46:22 45° E 21:46:26 45° E
Cosmos 2100 Rocket 3.9 21:42:26 14° S 21:47:53 80° E 21:54:09 10° N
OAO 2 Rocket 3.4 21:43:05 10° WSW 21:48:01 54° S 21:48:33 51° SSE
YAOGAN 6 3.7 21:49:35 33° NE 21:49:35 33° NE 21:52:06 10° N
Cosmos 2061 Rocket 3.9 21:44:13 20° S 21:48:42 74° E 21:54:58 10° N
Cosmos 1743 2.9 21:53:16 61° NE 21:53:16 61° NE 21:56:38 10° N
Cosmos 2150 Rocket 3.8 21:47:57 10° NNW 21:53:08 85° ENE 21:54:21 54° SSE
Iridium 4 Rocket 4.2 21:48:18 10° NNW 21:53:13 48° W 21:56:49 15° SSW
Cosmos 1825 Rocket 3.6 21:51:06 10° N 21:55:21 63° ENE 21:55:21 63° ENE
MetOp-A 4.1 21:55:01 53° SE 21:56:03 66° ENE 22:01:23 10° N
Cosmos 972 Rocket 4.4 21:51:17 10° NNW 21:57:13 78° ENE 21:59:19 45° SSE
SPOT 1/Viking Rocket 4.0 21:57:13 43° ENE 21:57:22 43° ENE 22:02:16 10° N
Cosmos 990 Rocket 4.2 21:53:20 10° N 21:58:29 51° ENE 21:58:46 51° E
DELTA 2 R/B (1) 3.5 21:53:57 10° W 21:59:30 76° SSW 22:00:24 61° SE
Cosmos 1066 Rocket 4.4 21:55:15 10° NNW 22:00:54 73° W 22:03:26 34° S
Cosmos 1953 Rocket 4.0 22:00:03 10° N 22:03:44 51° NE 22:03:44 51° NE
H-2A R/B 2.1 22:06:31 68° WSW 22:06:33 68° WSW 22:10:41 10° NNW
Cosmos 1697 Rocket 2.9 22:01:12 10° SSW 22:06:50 68° WNW 22:12:28 10° NNE
Lacrosse 5 rocket 2.4 22:06:41 10° WNW 22:09:24 35° W 22:09:24 35° W
ERS-1 Rocket 4.2 22:07:44 21° SSW 22:10:30 37° W 22:15:10 10° NNW
SL-16 R/B 4.3 22:15:31 13° NE 22:15:31 13° NE 22:16:15 10° NE
NOAA 11 4.3 22:15:11 59° ENE 22:15:11 59° ENE 22:20:34 10° N
deb Chang Zheng 4 4.4 22:12:17 10° N 22:16:36 50° WNW 22:18:17 32° SW
Cosmos 1898 Rocket 4.1 22:12:54 10° NNW 22:18:02 53° WSW 22:19:08 45° SW
Cosmos 1725 Rocket 3.9 22:22:45 67° E 22:22:49 67° E 22:29:00 10° NNE
Cosmos 1758 Rocket 4.3 22:19:11 10° N 22:22:20 47° N 22:22:20 47° N
Cosmos 1763 Rocket 3.5 22:24:18 70° NNE 22:24:18 70° NNE 22:28:47 10° NNE
Cosmos 1980 Rocket 2.3 22:26:51 40° SW 22:28:55 74° WNW 22:34:38 10° NNE
Meteor 1-15 Rocket 4.4 22:30:17 61° NE 22:30:17 61° NE 22:35:25 10° NNE
ARGOS 3.1 22:30:52 75° NNE 22:30:52 75° NNE 22:35:54 10° N
Lacrosse 5 2.3 22:35:21 10° NW 22:39:26 58° NW 22:39:26 58° NW
SPOT 5 3.9 22:41:22 39° WSW 22:41:45 39° W 22:46:22 10° NNW
Cosmos 2058 Rocket 4.4 22:44:37 38° NNW 22:44:37 38° NNW 22:47:31 10° N
Cosmos 841 Rocket 3.9 22:45:04 59° NNW 22:45:04 59° NNW 22:49:35 10° NNE
USA 215 3.4 22:44:53 55° ENE 22:45:34 58° NE 22:51:58 10° NW
BREEZE-M DEB (TANK) 4.1 22:34:54 10° SW 22:48:44 87° SE 22:49:08 79° ENE
Cosmos 2233 Rocket 4.4 22:51:56 52° NE 22:51:56 52° NE 22:56:43 10° NNE
Cosmos 2263 Rocket 3.6 22:54:44 10° N 22:58:15 29° NNE 22:58:15 29° NNE
Cosmos 2322 Rocket 3.6 23:03:22 28° NNE 23:03:22 28° NNE 23:05:56 10° NNE
H-2A R/B 3.4 23:19:51 35° NNW 23:19:51 35° NNW 23:22:41 10° NNW
BREEZE-M DEB (TANK) 3.9 23:04:45 10° WNW 23:18:46 65° N 23:18:46 65° N
Terra 3.7 23:23:37 28° NNW 23:23:37 28° NNW 23:25:51 10° NNW
